Find Starlink 32327

NORAD ID: 61641 Int'l Des: 2024-191 Owner: SPXS Country: US Constellation: starlink operational
LEOCIRCULAR

Current View

Loading 3D Globe...

About Starlink 32327

Starlink 32327 (NORAD 61641) is a starlink constellation satellite (v2 mini) launched Oct 23, 2024 by SPXS of US. It operates in LEO, CIRCULAR orbit with a mass of 730.00 kg.

About Starlink 32327

Description loading...

Upcoming Passes

Passes for default location (London). Set your location on the main map for personalized predictions.

Altitude History

Loading altitude history...

Two-Line Element Set

1 61641U 24191W 26169.68034862 .00000846 00000-0 40261-4 0 9991
2 61641 43.0032 303.9853 0001223 266.6240 93.4472 15.27582208 92984
Epoch: Jun 18, 2026 • Age: 13 hours

Current Status

Altitude 486.1 km
Velocity 7.63 km/s
Sub-Earth Point 38.99°N, 15.6°E
Launch Date Oct 23, 2024
Age 1.6 years
Type internet

Technical Details

Classification Payload
Mass 730.00 kg
Dry Mass 700.00 kg
Total Mass 730.00 kg
Length 0.30 m
Diameter 4.10 m
Span 29.00 m
Shape Box + pan
Manufacturer SPXS
Bus Type Starlink V2M
Phase Status In Orbit
Owner/State SPXS/US

Most Searched